DECAYED

STARLINK-1864, 47151 (Decayed)

Orbit data source: Space-Track

STARLINK-1864, 47151 was a payload satellite owned by SpaceX/Seattle (US) in LEO that was launched on Wed, 25 Nov 2020 UTC via an FALCON 9 launch vehicle from the Air Force Eastern Test Range (AFETR). Payload-class satellites include a variety of spacecraft equipped with specific instruments for various scientific and technological missions. These include communications satellites like Starlink; space stations such as the ISS; scientific satellites like the Hubble; Earth observation satellites from companies like Planet Labs, Umbra, and HawkEye 360; GPS; miniature CubeSats for education and research; and military/defense satellites.

Not visible in the next 10 days
Identifier
47151, 2020-088AF
Orbit
Decayed
Country
Flag of USUS
Related business
Manufacturer
SpaceX/Seattle
Mission
Decayed Commercial Communications
Bus & Motor
STARLINK, Unknown motor
Mass
260 kg wet, ~248 kg dry
Launch date (UTC)
2020-11-25 (6 years ago)
Launch vehicle
FALCON 9
Launch site
Air Force Eastern Test Range (AFETR)
Object type
Payload
Rocket body
Debris
Shape & HBR
Box + 1 Pan, 10.1 m
Radar Cross Section
13.562 m², Large (>1 m²)

Expand to show TLE details & history
Last TLE update: 1 year ago

TLE from 1 year ago
0 STARLINK-1864
1 47151U 20088AF  25041.56270520  .14660985  12477-4  58209-3 0  9996
2 47151  53.0223 227.1644 0005981 278.3259 196.7906 16.43579509233465
Epoch: 2025-02-10T13:30Z
TLE epoch observation values (Epoch: 2025-02-10T13:30:17.729Z)
Latitude
46.49063°
Longitude
11.65452°
Altitude
165.006 km
Speed
7.811 km/s
True Right ascension
23h 40m 26s
True Declination
46° 18' 12"
Sunlit
Object was in daylight at epoch
Visualization orbit readout
Latitude
Unknown
Longitude
Unknown
Altitude
Unknown
Speed
Unknown
Apparent Right ascension
Unknown
Apparent Declination
Unknown
Sunlit
N/A
Visualization observer readout
Local Sidereal Time
21:25:52
Azimuth
Unknown
Elevation
Unknown
Doppler factor
Unknown
Orbital elements
Apogee altitude
160.498 km
Perigee altitude
152.681 km
Semi-major axis
6,534.727 km
Eccentricity
0.0006
Inclination
53.0223°
RAAN
227.1644°
Arg. of periapsis
278.3259°
True anomaly
196.77082°
Mean anomaly
196.7906°
Eccentric anomaly
196.78071°
Mean motion
4.10868 °/min
Orbital period
87.62 mins
BSTAR
0.00058209
Loading maneuver chart data...
Computing Atmospheric mass density...

Documentation

Showing up to 5 results
|